TimeCDT,TemperatureF,Dew PointF,Humidity,Sea Level PressureIn,VisibilityMPH,Wind Direction,Wind SpeedMPH,Gust SpeedMPH,PrecipitationIn,Events,Conditions,WindDirDegrees,DateUTC
12:52 AM,37.0,35.1,93,29.88,2.5,North,9.2,-,N/A,,Overcast,350,2013-03-16 05:52:00
1:17 AM,37.4,35.6,93,29.87,2.5,North,13.8,-,N/A,,Overcast,350,2013-03-16 06:17:00
1:40 AM,39.2,35.6,87,29.88,2.5,North,18.4,24.2,N/A,,Overcast,350,2013-03-16 06:40:00
1:44 AM,39.2,35.6,87,29.88,3.0,North,20.7,28.8,N/A,,Overcast,350,2013-03-16 06:44:00
1:52 AM,39.0,36.0,89,29.90,3.0,North,19.6,28.8,N/A,,Overcast,350,2013-03-16 06:52:00
2:15 AM,37.4,35.6,93,29.89,2.5,North,18.4,29.9,N/A,,Overcast,350,2013-03-16 07:15:00
2:37 AM,37.4,33.8,87,29.90,3.0,North,18.4,27.6,N/A,,Overcast,360,2013-03-16 07:37:00
2:52 AM,37.0,34.0,89,29.91,4.0,North,24.2,31.1,N/A,,Overcast,350,2013-03-16 07:52:00
3:02 AM,35.6,33.8,93,29.92,2.5,NNW,17.3,29.9,N/A,,Overcast,340,2013-03-16 08:02:00
3:52 AM,36.0,32.0,86,29.96,2.5,NNW,19.6,24.2,N/A,,Overcast,340,2013-03-16 08:52:00
4:13 AM,35.6,32.0,87,29.94,6.0,North,21.9,28.8,N/A,,Overcast,350,2013-03-16 09:13:00
4:44 AM,35.6,30.2,81,29.96,5.0,NNW,20.7,33.4,N/A,,Overcast,340,2013-03-16 09:44:00
4:52 AM,35.1,30.0,82,29.98,5.0,North,24.2,32.2,N/A,,Haze,350,2013-03-16 09:52:00
5:52 AM,33.1,28.9,85,30.01,5.0,North,24.2,29.9,N/A,,Overcast,350,2013-03-16 10:52:00
6:52 AM,32.0,27.0,82,30.07,9.0,North,20.7,29.9,N/A,,Overcast,350,2013-03-16 11:52:00
7:52 AM,30.0,26.1,85,30.09,7.0,NNW,18.4,27.6,N/A,,Overcast,340,2013-03-16 12:52:00
8:52 AM,30.0,25.0,82,30.11,8.0,NNW,19.6,25.3,N/A,,Overcast,340,2013-03-16 13:52:00
9:52 AM,30.0,25.0,82,30.12,10.0,North,23.0,29.9,N/A,,Overcast,350,2013-03-16 14:52:00
10:42 AM,30.2,24.8,80,30.09,10.0,North,18.4,-,N/A,,Overcast,350,2013-03-16 15:42:00
10:52 AM,30.9,25.0,79,30.12,10.0,North,18.4,25.3,N/A,,Overcast,360,2013-03-16 15:52:00
11:52 AM,30.9,25.0,79,30.14,10.0,North,15.0,-,N/A,,Overcast,360,2013-03-16 16:52:00
12:52 PM,32.0,25.0,75,30.16,10.0,North,18.4,-,N/A,,Overcast,10,2013-03-16 17:52:00
1:52 PM,33.1,24.1,70,30.16,10.0,North,15.0,-,N/A,,Overcast,10,2013-03-16 18:52:00
2:52 PM,33.1,23.0,66,30.14,10.0,NE,13.8,-,N/A,,Overcast,40,2013-03-16 19:52:00
3:52 PM,34.0,23.0,64,30.14,10.0,NNE,8.1,-,N/A,,Overcast,30,2013-03-16 20:52:00
4:52 PM,34.0,23.0,64,30.13,10.0,North,11.5,-,N/A,,Mostly Cloudy,10,2013-03-16 21:52:00
5:52 PM,34.0,23.0,64,30.14,10.0,NNE,9.2,-,N/A,,Overcast,30,2013-03-16 22:52:00
6:52 PM,33.1,23.0,66,30.15,10.0,NNE,10.4,-,N/A,,Overcast,20,2013-03-16 23:52:00
7:52 PM,32.0,21.9,66,30.17,10.0,NNE,8.1,-,N/A,,Overcast,30,2013-03-17 00:52:00
8:52 PM,30.9,21.9,69,30.20,10.0,NNE,9.2,-,N/A,,Overcast,30,2013-03-17 01:52:00
9:52 PM,30.9,21.9,69,30.23,10.0,NNE,8.1,-,N/A,,Overcast,30,2013-03-17 02:52:00
10:21 PM,30.2,21.2,69,30.20,10.0,NNE,8.1,-,N/A,,Overcast,30,2013-03-17 03:21:00
10:52 PM,30.9,21.0,67,30.23,10.0,NNE,9.2,-,N/A,,Overcast,30,2013-03-17 03:52:00
11:52 PM,30.0,21.0,69,30.21,10.0,NNE,10.4,-,N/A,,Overcast,30,2013-03-17 04:52:00